Midland International Airport Midland US
ICAO: KMAF
IATA: MAF
Category: Medium
Scheduled Services: Yes

Elevation: 2871 ft
TransAlt. 18000 ft.

Airport Communications:
APP/DEP:121.1
ATIS:126.8
CLNC DEL:118.05
CTAF:118.7
GND:121.9
SAN ANGELO RDO:122.6
TWR:118.7
UNICOM:122.95

KMAF Zoom In..

If you have problems with the map follow the link
https://www.worldairports.se/pages/airport.php?
ICAO=KMAF

Runways:

(A) RW 04 length 4605 ft width 75 ft
---- / hdg 45

(B) RW 10 length 8302 ft width 150 ft
ILS 110.30 / hdg 105

(C) RW 16L length 4247 ft width 100 ft
---- / hdg 168

(D) RW 16R length 9501 ft width 150 ft
---- / hdg 166

(E) RW 22 length 4605 ft width 75 ft
---- / hdg 225

(F) RW 28 length 8302 ft width 150 ft
---- / hdg 285

(G) RW 34L length 9501 ft width 150 ft
---- / hdg 346

(H) RW 34R length 4247 ft width 100 ft
---- / hdg 348

Location; KMAF
Day. 20 / Time. 07.53 Zulu
* Altimeter: 30.51
* Temperature: 03° c. 37.4°f.
* Wind from: 050° Speed 03 kn.
Dewpoint: -04° c.
Visibility: 10 Statute Miles.
Clouds: Broken 7500 ft.

KMAF 200753Z 05003KT 10SM BKN075 03/M04 A3051 RMK AO2 SLP324 T00331044


Wind From 050°
Speed 03 kn.

 
 
jpsmedia worldairports.se 2020   terms of use